Home   Weather   Porto   Past weeks

Flag for Portugal Past Weather in Porto, Portugal — Yesterday and Last 2 Weeks

Now
59 °F

Sunny.


Feels Like: 57 °F
Forecast: 51 / 64 °F
Wind: 13 mph from Southeast

Location: Porto / Pedras Rubras

Current Time: Dec 6, 2016 at 10:30:30 am

Latest Report: Dec 6, 2016 at 10:00 am


Visibility: 10 mi

Pressure: 30.27 "Hg

Humidity: 72%

Dew Point: 50 °F

Location of PortoLocation

Past Weather in Porto — Graph

°F

Porto Temperature Yesterday

Maximum temperature yesterday: 70 °F (at 3:00 pm)
Minimum temperature yesterday: 50 °F (at 11:00 pm)
Average temperature yesterday: 58 °F

High & Low Weather Summary for the Past Weeks

 TemperatureHumidityPressure
High70 °F (Dec 4, 2:30 pm)100% (Nov 21, 11:00 pm)30.27 "Hg (Nov 21, 11:00 pm)
Low34 °F (Nov 23, 7:00 am)51% (Nov 22, 3:00 pm)29.50 "Hg (Nov 24, 7:30 pm)
Average53 °F77%29.85 "Hg
* Reported Nov 21 9:00 am — Dec 6 9:30 am, Porto, Weather by CustomWeather, © 2016

Note: Actual official high and low records may vary slightly from our data, if they occured in-between our weather recording intervals... More about our weather records

Advertising

Porto Weather History for the Previous 24 Hours

Scroll right to see more
 ConditionsComfort  
Time TempWeatherWind HumidityBarometerVisibility
9:30 am
Tue, Dec 6
57 °FSunny.12 mph77%30.27 "Hg10 mi
9:00 am57 °FSunny.13 mph77%30.27 "Hg10 mi
8:30 am55 °FSunny.12 mph77%30.27 "Hg10 mi
8:00 am55 °FSunny.13 mph77%30.27 "Hg10 mi
7:30 am55 °FClear.12 mph77%30.27 "Hg10 mi
7:00 am55 °FPassing clouds.12 mph77%30.24 "HgN/A
6:30 am55 °FClear.10 mph77%30.27 "Hg10 mi
6:00 am55 °FClear.10 mph82%30.24 "Hg10 mi
5:30 am52 °FPassing clouds.6 mph88%30.24 "HgN/A
5:00 am54 °FPassing clouds.3 mph82%30.24 "HgN/A
4:30 am54 °FClear.5 mph82%30.21 "Hg10 mi
4:00 am55 °FClear.2 mph77%30.21 "Hg10 mi
3:30 am57 °FClear.10 mph77%30.18 "Hg10 mi
3:00 am57 °FClear.10 mph77%30.18 "Hg10 mi
2:30 am57 °FClear.10 mph77%30.18 "Hg10 mi
2:00 am57 °FClear.12 mph77%30.18 "Hg10 mi
1:30 am57 °FClear.10 mph77%30.18 "Hg10 mi
1:00 am57 °FClear.9 mph77%30.18 "Hg10 mi
12:30 am57 °FClear.10 mph77%30.18 "Hg10 mi
12:00 am59 °FClear.10 mph72%30.18 "Hg10 mi
11:30 pm
Mon, Dec 5
54 °FClear.9 mph94%30.18 "Hg10 mi
11:00 pm50 °FPassing clouds.5 mph94%30.18 "HgN/A
10:30 pm52 °FClear.No wind88%30.18 "Hg10 mi
10:00 pm54 °FClear.2 mph94%30.18 "Hg10 mi
9:30 pm52 °FClear.No wind94%30.18 "Hg10 mi
9:00 pm52 °FClear.No wind94%30.18 "Hg10 mi
8:30 pm55 °FClear.No wind88%30.15 "Hg10 mi
8:00 pm55 °FClear.No wind88%30.15 "Hg10 mi
7:30 pm55 °FPassing clouds.3 mph94%30.15 "HgN/A
7:00 pm55 °FClear.2 mph94%30.15 "Hg10 mi
6:30 pm55 °FClear.2 mph88%30.12 "Hg10 mi
6:00 pm55 °FPassing clouds.3 mph88%30.12 "HgN/A
5:30 pm61 °FClear.2 mph77%30.09 "Hg10 mi
5:00 pm61 °FSunny.No wind72%30.09 "Hg10 mi
4:30 pm63 °FSunny.2 mph73%30.09 "Hg10 mi
4:00 pm66 °FSunny.3 mph64%30.07 "Hg10 mi
3:30 pm66 °FPassing clouds.5 mph64%30.07 "HgN/A
3:00 pm70 °FPassing clouds.5 mph57%30.04 "HgN/A
2:30 pm68 °FPassing clouds.5 mph56%30.04 "HgN/A
2:00 pm68 °FPassing clouds.6 mph56%30.04 "HgN/A
1:30 pm68 °FPassing clouds.8 mph56%30.04 "HgN/A
1:00 pm66 °FPassing clouds.9 mph60%30.04 "HgN/A
12:30 pm66 °FPassing clouds.9 mph60%30.04 "HgN/A
12:00 pm66 °FPassing clouds.10 mph60%30.04 "HgN/A
11:30 am64 °FPassing clouds.10 mph64%30.04 "HgN/A
11:00 am64 °FPassing clouds.9 mph64%30.04 "HgN/A
10:30 am63 °FSunny.8 mph68%30.04 "Hg10 mi
10:00 am63 °FPassing clouds.7 mph68%30.04 "HgN/A
Weather by CustomWeather, © 2016

See weather overviewHow to use our weather pages